UTC,SampNum,MM/DD/YYYY,HH:MM:SS,VbatMain,VbiasPos,VbiasNeg,TC_cont,Humidity,Vrse,Vrse_std,Vk,Vk_std,Ik,Ib,Opt_PN,Opt_SN,Moxy,O2satper,TC_opt,Dphase,Bphase,Rphase,Bamp,Bpot,Ramp,Opt_rawtemp,TC_MCat,Cond,Pres,pSal,day_MC,month_MC,year_MC,time_MC,pH,CHa,NTU,flow,unix_time,TC_cont_flg,Moxy_flg,O2satper_flg,pSal_flg,pH_flg,CHa_flg,NTU_flg
2024-05-01 00:00:02+00:00,,,,,,,14.9401,,,,,,,,,,,,,,,,,,,,,4.04912,,32.8472,,,,,,6.09,1.2,0,1714521602,2,9,9,2,9,2,2
2024-05-01 00:20:01+00:00,,,,,,,14.9751,,,,,,,,,,,,,,,,,,,,,4.05238,,32.8473,,,,,,5.85,1.44,0,1714522801,2,9,9,2,9,2,2
2024-05-01 00:40:02+00:00,,,,,,,14.9958,,,,,,,,,,,,,,,,,,,,,4.05674,,32.8693,,,,,,5.36,1.69,0,1714524002,2,9,9,2,9,2,2
2024-05-01 01:00:01+00:00,,,,,,,15.0489,,,,,,,,,,,,,,,,,,,,,4.06353,,32.8859,,,,,,5.6,1.44,0,1714525201,2,9,9,2,9,2,2
2024-05-01 01:20:02+00:00,,,,,,,15.0075,,,,,,,,,,,,,,,,,,,,,4.06183,,32.9054,,,,,,5.6,3.13,0,1714526402,2,9,9,2,9,2,2
2024-05-01 01:40:02+00:00,,,,,,,14.9966,,,,,,,,,,,,,,,,,,,,,4.05947,,32.8932,,,,,,5.05,2.89,0,1714527602,2,9,9,2,9,2,2
2024-05-01 02:00:02+00:00,,,,,,,14.9901,,,,,,,,,,,,,,,,,,,,,4.05829,,32.888,,,,,,4.57,1.69,0,1714528802,2,9,9,2,9,2,2
2024-05-01 02:20:01+00:00,,,,,,,14.9881,,,,,,,,,,,,,,,,,,,,,4.05786,,32.8859,,,,,,4.45,1.2,0,1714530001,2,9,9,2,9,2,2
2024-05-01 02:40:01+00:00,,,,,,,15.0052,,,,,,,,,,,,,,,,,,,,,4.05704,,32.864,,,,,,4.57,3.13,0,1714531201,2,9,9,2,9,2,2
2024-05-01 03:00:02+00:00,,,,,,,14.9778,,,,,,,,,,,,,,,,,,,,,4.0568,,32.885,,,,,,4.45,1.2,0,1714532402,2,9,9,2,9,2,2
2024-05-01 03:20:02+00:00,,,,,,,14.9635,,,,,,,,,,,,,,,,,,,,,4.0558,,32.8879,,,,,,4.45,2.17,0,1714533602,2,9,9,2,9,2,2
2024-05-01 03:40:02+00:00,,,,,,,14.9277,,,,,,,,,,,,,,,,,,,,,4.05352,,32.8975,,,,,,4.14,1.2,0,1714534802,2,9,9,2,9,2,2
2024-05-01 04:00:01+00:00,,,,,,,14.8867,,,,,,,,,,,,,,,,,,,,,4.04826,,32.8844,,,,,,3.96,1.93,0,1714536001,2,9,9,2,9,2,2
2024-05-01 04:20:02+00:00,,,,,,,14.8375,,,,,,,,,,,,,,,,,,,,,4.04199,,32.8691,,,,,,4.2,3.13,0,1714537202,2,9,9,2,9,2,2
2024-05-01 04:40:02+00:00,,,,,,,14.8605,,,,,,,,,,,,,,,,,,,,,4.04179,,32.8478,,,,,,3.84,1.93,0,1714538402,2,9,9,2,9,2,2
2024-05-01 05:00:01+00:00,,,,,,,14.8716,,,,,,,,,,,,,,,,,,,,,4.04265,,32.8463,,,,,,3.59,1.44,0,1714539601,2,9,9,2,9,2,2
2024-05-01 05:20:01+00:00,,,,,,,14.8897,,,,,,,,,,,,,,,,,,,,,4.04728,,32.873,,,,,,3.59,1.2,0,1714540801,2,9,9,2,9,2,2
2024-05-01 05:40:01+00:00,,,,,,,14.8733,,,,,,,,,,,,,,,,,,,,,4.04745,,32.8884,,,,,,3.59,1.69,0,1714542001,2,9,9,2,9,2,2
2024-05-01 06:00:01+00:00,,,,,,,14.8411,,,,,,,,,,,,,,,,,,,,,4.04392,,32.8836,,,,,,3.29,1.69,0,1714543201,2,9,9,2,9,2,2
2024-05-01 06:20:01+00:00,,,,,,,14.7914,,,,,,,,,,,,,,,,,,,,,4.03959,,32.8862,,,,,,4.45,13.73,0,1714544401,2,9,9,2,9,2,2
2024-05-01 06:40:02+00:00,,,,,,,14.8395,,,,,,,,,,,,,,,,,,,,,4.04102,,32.8586,,,,,,3.41,1.44,0,1714545602,2,9,9,2,9,2,2
2024-05-01 07:00:02+00:00,,,,,,,14.8008,,,,,,,,,,,,,,,,,,,,,4.04274,,32.9069,,,,,,3.71,1.93,0,1714546802,2,9,9,2,9,2,2
2024-05-01 07:20:02+00:00,,,,,,,14.7462,,,,,,,,,,,,,,,,,,,,,4.03895,,32.9186,,,,,,3.35,1.69,0,1714548002,2,9,9,2,9,2,2
2024-05-01 07:40:02+00:00,,,,,,,14.6844,,,,,,,,,,,,,,,,,,,,,4.03501,,32.9352,,,,,,3.47,0.96,0,1714549202,2,9,9,2,9,2,2
2024-05-01 08:00:01+00:00,,,,,,,14.6651,,,,,,,,,,,,,,,,,,,,,4.03288,,32.9321,,,,,,3.65,1.44,0,1714550401,2,9,9,2,9,2,2
2024-05-01 08:20:02+00:00,,,,,,,14.6677,,,,,,,,,,,,,,,,,,,,,4.03205,,32.9223,,,,,,3.47,1.2,0,1714551602,2,9,9,2,9,2,2
2024-05-01 08:40:01+00:00,,,,,,,14.6364,,,,,,,,,,,,,,,,,,,,,4.02918,,32.9227,,,,,,3.53,1.69,0,1714552801,2,9,9,2,9,2,2
2024-05-01 09:00:01+00:00,,,,,,,14.6326,,,,,,,,,,,,,,,,,,,,,4.03001,,32.9335,,,,,,3.59,1.44,0,1714554001,2,9,9,2,9,2,2
2024-05-01 09:20:01+00:00,,,,,,,14.6334,,,,,,,,,,,,,,,,,,,,,4.0298,,32.9309,,,,,,3.29,0.48,0,1714555201,2,9,9,2,9,2,2
2024-05-01 09:40:01+00:00,,,,,,,14.6418,,,,,,,,,,,,,,,,,,,,,4.0293,,32.9192,,,,,,2.44,-1.69,0,1714556401,2,9,9,2,9,2,4
2024-05-01 10:00:02+00:00,,,,,,,14.6156,,,,,,,,,,,,,,,,,,,,,4.02811,,32.9306,,,,,,4.2,6.02,0,1714557602,2,9,9,2,9,2,2
2024-05-01 10:20:02+00:00,,,,,,,14.6553,,,,,,,,,,,,,,,,,,,,,4.02826,,32.8983,,,,,,3.29,1.69,0,1714558802,2,9,9,2,9,2,2
2024-05-01 10:40:02+00:00,,,,,,,14.6432,,,,,,,,,,,,,,,,,,,,,4.02741,,32.9008,,,,,,3.71,10.35,0,1714560002,2,9,9,2,9,2,2
2024-05-01 11:00:02+00:00,,,,,,,14.6319,,,,,,,,,,,,,,,,,,,,,4.0252,,32.8902,,,,,,3.47,1.69,0,1714561202,2,9,9,2,9,2,2
2024-05-01 11:20:02+00:00,,,,,,,14.5824,,,,,,,,,,,,,,,,,,,,,4.02379,,32.9193,,,,,,3.23,1.69,0,1714562402,2,9,9,2,9,2,2
2024-05-01 11:40:02+00:00,,,,,,,14.5904,,,,,,,,,,,,,,,,,,,,,4.02181,,32.8946,,,,,,3.23,1.69,0,1714563602,2,9,9,2,9,2,2
2024-05-01 12:00:02+00:00,,,,,,,14.549,,,,,,,,,,,,,,,,,,,,,4.02168,,32.9285,,,,,,3.23,1.69,0,1714564802,2,9,9,2,9,2,2
2024-05-01 12:20:02+00:00,,,,,,,14.4457,,,,,,,,,,,,,,,,,,,,,4.01461,,32.9515,,,,,,3.11,1.69,0,1714566002,2,9,9,2,9,2,2
2024-05-01 12:40:02+00:00,,,,,,,14.4485,,,,,,,,,,,,,,,,,,,,,4.01013,,32.9082,,,,,,2.68,2.17,0,1714567202,2,9,9,2,9,2,2
2024-05-01 13:00:02+00:00,,,,,,,14.4386,,,,,,,,,,,,,,,,,,,,,4.01194,,32.9332,,,,,,2.62,1.44,0,1714568402,2,9,9,2,9,2,2
2024-05-01 13:20:02+00:00,,,,,,,14.4448,,,,,,,,,,,,,,,,,,,,,4.01052,,32.9149,,,,,,2.62,1.44,0,1714569602,2,9,9,2,9,2,2
2024-05-01 13:40:02+00:00,,,,,,,14.4271,,,,,,,,,,,,,,,,,,,,,4.01079,,32.9325,,,,,,2.5,1.44,0,1714570802,2,9,9,2,9,2,2
2024-05-01 14:00:02+00:00,,,,,,,14.4888,,,,,,,,,,,,,,,,,,,,,4.01626,,32.9301,,,,,,2.68,1.44,0,1714572002,2,9,9,2,9,2,2
2024-05-01 14:20:02+00:00,,,,,,,14.4807,,,,,,,,,,,,,,,,,,,,,4.01711,,32.9447,,,,,,2.8,1.69,0,1714573202,2,9,9,2,9,2,2
2024-05-01 14:40:01+00:00,,,,,,,14.4764,,,,,,,,,,,,,,,,,,,,,4.01614,,32.9395,,,,,,2.86,1.44,0,1714574401,2,9,9,2,9,2,2
2024-05-01 15:00:01+00:00,,,,,,,14.4508,,,,,,,,,,,,,,,,,,,,,4.01534,,32.954,,,,,,2.8,1.69,0,1714575601,2,9,9,2,9,2,2
2024-05-01 15:20:02+00:00,,,,,,,14.4611,,,,,,,,,,,,,,,,,,,,,4.0157,,32.9485,,,,,,2.62,1.69,0,1714576802,2,9,9,2,9,2,2
2024-05-01 15:40:02+00:00,,,,,,,14.5065,,,,,,,,,,,,,,,,,,,,,4.02016,,32.9506,,,,,,2.62,1.44,0,1714578002,2,9,9,2,9,2,2
2024-05-01 16:00:02+00:00,,,,,,,14.52,,,,,,,,,,,,,,,,,,,,,4.02127,,32.9494,,,,,,2.31,1.2,0,1714579202,2,9,9,2,9,2,2
2024-05-01 16:20:01+00:00,,,,,,,14.5318,,,,,,,,,,,,,,,,,,,,,4.02249,,32.9504,,,,,,2.38,1.44,0,1714580401,2,9,9,2,9,2,2
2024-05-01 16:40:01+00:00,,,,,,,14.5306,,,,,,,,,,,,,,,,,,,,,4.0218,,32.9451,,,,,,2.31,1.44,0,1714581601,2,9,9,2,9,2,2
2024-05-01 17:00:02+00:00,,,,,,,14.5343,,,,,,,,,,,,,,,,,,,,,4.02064,,32.9314,,,,,,2.25,1.44,0,1714582802,2,9,9,2,9,2,2
2024-05-01 17:20:02+00:00,,,,,,,14.5501,,,,,,,,,,,,,,,,,,,,,4.02295,,32.9391,,,,,,2.38,1.44,0,1714584002,2,9,9,2,9,2,2
2024-05-01 17:40:02+00:00,,,,,,,14.5837,,,,,,,,,,,,,,,,,,,,,4.0256,,32.9347,,,,,,2.25,1.44,0,1714585202,2,9,9,2,9,2,2
2024-05-01 18:00:02+00:00,,,,,,,14.5642,,,,,,,,,,,,,,,,,,,,,4.02589,,32.9539,,,,,,2.19,1.44,0,1714586402,2,9,9,2,9,2,2
2024-05-01 18:20:01+00:00,,,,,,,14.5707,,,,,,,,,,,,,,,,,,,,,4.02747,,32.9628,,,,,,1.95,1.44,0,1714587601,2,9,9,2,9,2,2
2024-05-01 18:40:02+00:00,,,,,,,14.6106,,,,,,,,,,,,,,,,,,,,,4.03095,,32.9607,,,,,,1.77,1.44,0,1714588802,2,9,9,2,9,2,2
2024-05-01 19:00:02+00:00,,,,,,,14.6737,,,,,,,,,,,,,,,,,,,,,4.03488,,32.943,,,,,,1.89,1.44,0,1714590002,2,9,9,2,9,2,2
2024-05-01 19:20:01+00:00,,,,,,,14.7279,,,,,,,,,,,,,,,,,,,,,4.03869,,32.9317,,,,,,1.89,1.44,0,1714591201,2,9,9,2,9,2,2
2024-05-01 19:40:02+00:00,,,,,,,14.7439,,,,,,,,,,,,,,,,,,,,,4.04201,,32.9484,,,,,,1.89,1.44,0,1714592402,2,9,9,2,9,2,2
2024-05-01 20:00:01+00:00,,,,,,,14.7618,,,,,,,,,,,,,,,,,,,,,4.04316,,32.9437,,,,,,2.01,1.44,0,1714593601,2,9,9,2,9,2,2
2024-05-01 20:20:01+00:00,,,,,,,14.7883,,,,,,,,,,,,,,,,,,,,,4.04625,,32.9494,,,,,,2.25,1.44,0,1714594801,2,9,9,2,9,2,2
2024-05-01 20:40:02+00:00,,,,,,,14.7822,,,,,,,,,,,,,,,,,,,,,4.04626,,32.9546,,,,,,1.89,1.44,0,1714596002,2,9,9,2,9,2,2
2024-05-01 21:00:02+00:00,,,,,,,14.722,,,,,,,,,,,,,,,,,,,,,4.04489,,32.9932,,,,,,1.95,1.44,0,1714597202,2,9,9,2,9,2,2
2024-05-01 21:20:02+00:00,,,,,,,14.7312,,,,,,,,,,,,,,,,,,,,,4.04511,,32.9874,,,,,,1.83,1.44,0,1714598402,2,9,9,2,9,2,2
2024-05-01 21:40:02+00:00,,,,,,,14.7479,,,,,,,,,,,,,,,,,,,,,4.04736,,32.9937,,,,,,1.71,1.44,0,1714599602,2,9,9,2,9,2,2
2024-05-01 22:00:02+00:00,,,,,,,14.7581,,,,,,,,,,,,,,,,,,,,,4.04627,,32.9751,,,,,,1.89,1.44,0,1714600802,2,9,9,2,9,2,2
2024-05-01 22:20:02+00:00,,,,,,,14.6987,,,,,,,,,,,,,,,,,,,,,4.04336,,32.9991,,,,,,2.31,1.44,0,1714602002,2,9,9,2,9,2,2
2024-05-01 22:40:01+00:00,,,,,,,14.6954,,,,,,,,,,,,,,,,,,,,,4.0412,,32.9821,,,,,,2.19,1.44,0,1714603201,2,9,9,2,9,2,2
2024-05-01 23:00:02+00:00,,,,,,,14.4738,,,,,,,,,,,,,,,,,,,,,4.03281,,33.0943,,,,,,2.13,1.44,0,1714604402,2,9,9,2,9,2,2
2024-05-01 23:20:01+00:00,,,,,,,14.5271,,,,,,,,,,,,,,,,,,,,,4.02811,,33.0058,,,,,,2.13,1.2,0,1714605601,2,9,9,2,9,2,2
2024-05-01 23:40:01+00:00,,,,,,,14.4388,,,,,,,,,,,,,,,,,,,,,4.02515,,33.0541,,,,,,2.01,1.44,0,1714606801,2,9,9,2,9,2,2
2024-05-02 00:00:02+00:00,,,,,,,14.2697,,,,,,,,,,,,,,,,,,,,,4.0137,,33.0936,,,,,,2.19,1.2,0,1714608002,2,9,9,2,9,2,2
2024-05-02 00:20:01+00:00,,,,,,,14.5951,,,,,,,,,,,,,,,,,,,,,4.02093,,32.8824,,,,,,2.13,0.72,0,1714609201,2,9,9,2,9,2,2
2024-05-02 00:40:02+00:00,,,,,,,14.5452,,,,,,,,,,,,,,,,,,,,,4.03227,,33.0284,,,,,,2.86,1.2,0,1714610402,2,9,9,2,9,2,2
2024-05-02 01:00:02+00:00,,,,,,,14.5331,,,,,,,,,,,,,,,,,,,,,4.02956,,33.0139,,,,,,2.44,1.44,0,1714611602,2,9,9,2,9,2,2
2024-05-02 01:20:01+00:00,,,,,,,14.6207,,,,,,,,,,,,,,,,,,,,,4.03351,,32.9755,,,,,,2.44,1.2,0,1714612801,2,9,9,2,9,2,2
2024-05-02 01:40:02+00:00,,,,,,,14.7212,,,,,,,,,,,,,,,,,,,,,4.0422,,32.9694,,,,,,2.44,1.2,0,1714614002,2,9,9,2,9,2,2
2024-05-02 02:00:02+00:00,,,,,,,14.7213,,,,,,,,,,,,,,,,,,,,,4.04617,,33.0055,,,,,,2.13,1.44,0,1714615202,2,9,9,2,9,2,2
2024-05-02 02:20:02+00:00,,,,,,,14.7867,,,,,,,,,,,,,,,,,,,,,4.04873,,32.9733,,,,,,1.89,1.2,0,1714616402,2,9,9,2,9,2,2
2024-05-02 02:40:02+00:00,,,,,,,14.7887,,,,,,,,,,,,,,,,,,,,,4.05261,,33.0068,,,,,,1.71,1.2,0,1714617602,2,9,9,2,9,2,2
2024-05-02 03:00:02+00:00,,,,,,,14.8225,,,,,,,,,,,,,,,,,,,,,4.05493,,32.9993,,,,,,1.46,1.2,0,1714618802,2,9,9,2,9,2,2
2024-05-02 03:20:01+00:00,,,,,,,14.804,,,,,,,,,,,,,,,,,,,,,4.05219,,32.9901,,,,,,1.64,1.2,0,1714620001,2,9,9,2,9,2,2
2024-05-02 03:40:02+00:00,,,,,,,14.7973,,,,,,,,,,,,,,,,,,,,,4.04945,,32.9708,,,,,,1.77,1.44,0,1714621202,2,9,9,2,9,2,2
2024-05-02 04:00:02+00:00,,,,,,,14.7863,,,,,,,,,,,,,,,,,,,,,4.04853,,32.9718,,,,,,1.89,1.44,0,1714622402,2,9,9,2,9,2,2
2024-05-02 04:20:02+00:00,,,,,,,14.7565,,,,,,,,,,,,,,,,,,,,,4.04672,,32.9805,,,,,,2.01,1.2,0,1714623602,2,9,9,2,9,2,2
2024-05-02 04:40:02+00:00,,,,,,,14.7505,,,,,,,,,,,,,,,,,,,,,4.04366,,32.9578,,,,,,2.19,1.2,0,1714624802,2,9,9,2,9,2,2
2024-05-02 05:00:02+00:00,,,,,,,14.7475,,,,,,,,,,,,,,,,,,,,,4.04328,,32.9569,,,,,,2.44,1.44,0,1714626002,2,9,9,2,9,2,2
2024-05-02 05:20:02+00:00,,,,,,,14.732,,,,,,,,,,,,,,,,,,,,,4.04116,,32.9508,,,,,,2.31,1.44,0,1714627202,2,9,9,2,9,2,2
2024-05-02 05:40:02+00:00,,,,,,,14.7281,,,,,,,,,,,,,,,,,,,,,4.04016,,32.945,,,,,,2.38,1.44,0,1714628402,2,9,9,2,9,2,2
2024-05-02 06:00:02+00:00,,,,,,,14.7084,,,,,,,,,,,,,,,,,,,,,4.03885,,32.9497,,,,,,2.5,1.44,0,1714629602,2,9,9,2,9,2,2
2024-05-02 06:20:02+00:00,,,,,,,14.6899,,,,,,,,,,,,,,,,,,,,,4.03849,,32.9621,,,,,,2.86,1.2,0,1714630802,2,9,9,2,9,2,2
2024-05-02 06:40:02+00:00,,,,,,,14.6816,,,,,,,,,,,,,,,,,,,,,4.03555,,32.9424,,,,,,3.04,1.2,0,1714632002,2,9,9,2,9,2,2
2024-05-02 07:00:01+00:00,,,,,,,14.641,,,,,,,,,,,,,,,,,,,,,4.03469,,32.969,,,,,,2.98,1.2,0,1714633201,2,9,9,2,9,2,2
2024-05-02 07:20:02+00:00,,,,,,,14.5739,,,,,,,,,,,,,,,,,,,,,4.03071,,32.9896,,,,,,3.17,1.2,0,1714634402,2,9,9,2,9,2,2
2024-05-02 07:40:02+00:00,,,,,,,14.5217,,,,,,,,,,,,,,,,,,,,,4.02477,,32.9798,,,,,,2.98,1.69,0,1714635602,2,9,9,2,9,2,2
2024-05-02 08:00:02+00:00,,,,,,,14.4435,,,,,,,,,,,,,,,,,,,,,4.02061,,33.0084,,,,,,2.74,1.44,0,1714636802,2,9,9,2,9,2,2
2024-05-02 08:20:02+00:00,,,,,,,14.3541,,,,,,,,,,,,,,,,,,,,,4.01427,,33.0265,,,,,,2.19,1.93,0,1714638002,2,9,9,2,9,2,2
2024-05-02 08:40:02+00:00,,,,,,,14.2589,,,,,,,,,,,,,,,,,,,,,4.00706,,33.0417,,,,,,2.56,1.2,0,1714639202,2,9,9,2,9,2,2
2024-05-02 09:00:01+00:00,,,,,,,14.1689,,,,,,,,,,,,,,,,,,,,,3.99876,,33.0424,,,,,,2.56,1.2,0,1714640401,2,9,9,2,9,2,2
2024-05-02 09:20:01+00:00,,,,,,,13.9974,,,,,,,,,,,,,,,,,,,,,3.98966,,33.1057,,,,,,2.19,1.2,0,1714641601,2,9,9,2,9,2,2
2024-05-02 09:40:01+00:00,,,,,,,13.7953,,,,,,,,,,,,,,,,,,,,,3.97584,,33.1518,,,,,,2.07,1.2,0,1714642801,2,9,9,2,9,2,2
2024-05-02 10:00:02+00:00,,,,,,,13.5127,,,,,,,,,,,,,,,,,,,,,3.9568,,33.2194,,,,,,1.89,1.2,0,1714644002,2,9,9,2,9,2,2
2024-05-02 10:20:02+00:00,,,,,,,13.1345,,,,,,,,,,,,,,,,,,,,,3.93363,,33.3323,,,,,,1.71,1.2,0,1714645202,2,9,9,2,9,2,2
2024-05-02 10:40:02+00:00,,,,,,,12.6969,,,,,,,,,,,,,,,,,,,,,3.90136,,33.4121,,,,,,1.52,1.2,0,1714646402,2,9,9,2,9,2,2
2024-05-02 11:00:01+00:00,,,,,,,12.2592,,,,,,,,,,,,,,,,,,,,,3.86753,,33.4773,,,,,,1.34,0.96,0,1714647601,2,9,9,2,9,2,2
2024-05-02 11:20:02+00:00,,,,,,,11.9841,,,,,,,,,,,,,,,,,,,,,3.84015,,33.4589,,,,,,1.16,0.96,0,1714648802,2,9,9,2,9,2,2
2024-05-02 11:40:02+00:00,,,,,,,11.7104,,,,,,,,,,,,,,,,,,,,,3.82017,,33.5108,,,,,,1.28,0.96,0,1714650002,2,9,9,2,9,2,2
2024-05-02 12:00:02+00:00,,,,,,,11.6057,,,,,,,,,,,,,,,,,,,,,3.805,,33.4571,,,,,,0.97,1.2,0,1714651202,2,9,9,2,9,2,2
2024-05-02 12:20:01+00:00,,,,,,,11.3721,,,,,,,,,,,,,,,,,,,,,3.7902,,33.5232,,,,,,1.04,1.2,0,1714652401,2,9,9,2,9,2,2
2024-05-02 12:40:01+00:00,,,,,,,11.3296,,,,,,,,,,,,,,,,,,,,,3.78181,,33.4792,,,,,,0.85,0.96,0,1714653601,2,9,9,2,9,2,2
2024-05-02 13:00:02+00:00,,,,,,,11.1764,,,,,,,,,,,,,,,,,,,,,3.77384,,33.5397,,,,,,0.85,0.96,0,1714654802,2,9,9,2,9,2,2
2024-05-02 13:20:01+00:00,,,,,,,11.0969,,,,,,,,,,,,,,,,,,,,,3.7654,,33.5287,,,,,,0.79,0.96,0,1714656001,2,9,9,2,9,2,2
2024-05-02 13:40:02+00:00,,,,,,,11.0485,,,,,,,,,,,,,,,,,,,,,3.76066,,33.5258,,,,,,0.67,0.96,0,1714657202,2,9,9,2,9,2,2
2024-05-02 14:00:02+00:00,,,,,,,11.1134,,,,,,,,,,,,,,,,,,,,,3.7602,,33.4621,,,,,,0.79,0.96,0,1714658402,2,9,9,2,9,2,2
2024-05-02 14:20:02+00:00,,,,,,,11.0352,,,,,,,,,,,,,,,,,,,,,3.76171,,33.5484,,,,,,0.85,0.96,0,1714659602,2,9,9,2,9,2,2
2024-05-02 14:40:01+00:00,,,,,,,11.4719,,,,,,,,,,,,,,,,,,,,,3.76856,,33.2203,,,,,,0.73,0.96,0,1714660801,2,9,9,2,9,2,2
2024-05-02 15:00:01+00:00,,,,,,,12.7885,,,,,,,,,,,,,,,,,,,,,3.85589,,32.8984,,,,,,0.79,1.2,0,1714662001,2,9,9,2,9,2,2
2024-05-02 15:20:01+00:00,,,,,,,13.3123,,,,,,,,,,,,,,,,,,,,,3.91299,,32.9826,,,,,,1.77,1.2,0,1714663201,2,9,9,2,9,2,2
2024-05-02 15:40:02+00:00,,,,,,,13.5194,,,,,,,,,,,,,,,,,,,,,3.93615,,33.0204,,,,,,2.44,1.2,0,1714664402,2,9,9,2,9,2,2
2024-05-02 16:00:02+00:00,,,,,,,14.0107,,,,,,,,,,,,,,,,,,,,,3.96517,,32.8677,,,,,,3.11,1.2,0,1714665602,2,9,9,2,9,2,2
2024-05-02 16:20:02+00:00,,,,,,,14.1668,,,,,,,,,,,,,,,,,,,,,3.98859,,32.9505,,,,,,3.84,1.2,0,1714666802,2,9,9,2,9,2,2
2024-05-02 16:40:02+00:00,,,,,,,14.2537,,,,,,,,,,,,,,,,,,,,,3.99735,,32.9569,,,,,,4.2,1.2,0,1714668002,2,9,9,2,9,2,2
2024-05-02 17:00:02+00:00,,,,,,,14.2944,,,,,,,,,,,,,,,,,,,,,4.00276,,32.9718,,,,,,3.96,1.44,0,1714669202,2,9,9,2,9,2,2
2024-05-02 17:20:02+00:00,,,,,,,14.3636,,,,,,,,,,,,,,,,,,,,,4.00681,,32.95,,,,,,3.9,1.2,0,1714670402,2,9,9,2,9,2,2
2024-05-02 17:40:02+00:00,,,,,,,14.384,,,,,,,,,,,,,,,,,,,,,4.00976,,32.9597,,,,,,3.78,1.2,0,1714671602,2,9,9,2,9,2,2
2024-05-02 18:00:01+00:00,,,,,,,14.3293,,,,,,,,,,,,,,,,,,,,,4.00782,,32.9886,,,,,,3.53,1.2,0,1714672801,2,9,9,2,9,2,2
2024-05-02 18:20:02+00:00,,,,,,,14.3609,,,,,,,,,,,,,,,,,,,,,4.0073,,32.9568,,,,,,3.59,1.2,0,1714674002,2,9,9,2,9,2,2
2024-05-02 18:40:02+00:00,,,,,,,14.3362,,,,,,,,,,,,,,,,,,,,,4.00639,,32.9696,,,,,,3.47,1.44,0,1714675202,2,9,9,2,9,2,2
2024-05-02 19:00:01+00:00,,,,,,,14.3907,,,,,,,,,,,,,,,,,,,,,4.00616,,32.921,,,,,,3.23,1.2,0,1714676401,2,9,9,2,9,2,2
2024-05-02 19:20:02+00:00,,,,,,,14.4294,,,,,,,,,,,,,,,,,,,,,4.0105,,32.9278,,,,,,3.23,1.2,0,1714677602,2,9,9,2,9,2,2
2024-05-02 19:40:02+00:00,,,,,,,14.4597,,,,,,,,,,,,,,,,,,,,,4.01445,,32.9382,,,,,,3.41,1.2,0,1714678802,2,9,9,2,9,2,2
2024-05-02 20:00:02+00:00,,,,,,,14.4802,,,,,,,,,,,,,,,,,,,,,4.01764,,32.95,,,,,,4.2,1.69,0,1714680002,2,9,9,2,9,2,2
2024-05-02 20:20:02+00:00,,,,,,,14.3468,,,,,,,,,,,,,,,,,,,,,4.01439,,33.034,,,,,,3.47,1.2,0,1714681202,2,9,9,2,9,2,2
2024-05-02 20:40:02+00:00,,,,,,,14.2645,,,,,,,,,,,,,,,,,,,,,4.00387,,33.0076,,,,,,2.86,1.2,0,1714682402,2,9,9,2,9,2,2
2024-05-02 21:00:02+00:00,,,,,,,14.2669,,,,,,,,,,,,,,,,,,,,,4.00105,,32.9796,,,,,,2.38,1.44,0,1714683602,2,9,9,2,9,2,2
2024-05-02 21:20:02+00:00,,,,,,,14.4304,,,,,,,,,,,,,,,,,,,,,4.009,,32.9132,,,,,,2.31,1.2,0,1714684802,2,9,9,2,9,2,2
2024-05-02 21:40:02+00:00,,,,,,,14.5452,,,,,,,,,,,,,,,,,,,,,4.02187,,32.9333,,,,,,2.74,1.2,0,1714686002,2,9,9,2,9,2,2
2024-05-02 22:00:02+00:00,,,,,,,14.5378,,,,,,,,,,,,,,,,,,,,,4.02492,,32.9675,,,,,,3.17,1.44,0,1714687202,2,9,9,2,9,2,2
2024-05-02 22:20:02+00:00,,,,,,,14.5432,,,,,,,,,,,,,,,,,,,,,4.02524,,32.9659,,,,,,3.17,1.44,0,1714688402,2,9,9,2,9,2,2
2024-05-02 22:40:02+00:00,,,,,,,14.4999,,,,,,,,,,,,,,,,,,,,,4.02326,,32.9846,,,,,,3.17,1.44,0,1714689602,2,9,9,2,9,2,2
2024-05-02 23:00:02+00:00,,,,,,,14.5166,,,,,,,,,,,,,,,,,,,,,4.02285,,32.9666,,,,,,2.74,1.2,0,1714690802,2,9,9,2,9,2,2
2024-05-02 23:20:02+00:00,,,,,,,14.6091,,,,,,,,,,,,,,,,,,,,,4.02658,,32.9221,,,,,,2.68,1.2,0,1714692002,2,9,9,2,9,2,2
2024-05-02 23:40:02+00:00,,,,,,,14.6576,,,,,,,,,,,,,,,,,,,,,4.03442,,32.9525,,,,,,2.92,1.44,0,1714693202,2,9,9,2,9,2,2
2024-05-03 00:00:02+00:00,,,,,,,14.6967,,,,,,,,,,,,,,,,,,,,,4.0376,,32.9482,,,,,,3.04,1.2,0,1714694402,2,9,9,2,9,2,2
2024-05-03 00:20:02+00:00,,,,,,,14.7195,,,,,,,,,,,,,,,,,,,,,4.03947,,32.946,,,,,,3.23,1.44,0,1714695602,2,9,9,2,9,2,2
2024-05-03 00:40:02+00:00,,,,,,,14.7532,,,,,,,,,,,,,,,,,,,,,4.0424,,32.9441,,,,,,3.59,1.44,0,1714696802,2,9,9,2,9,2,2
2024-05-03 01:00:02+00:00,,,,,,,14.7354,,,,,,,,,,,,,,,,,,,,,4.04385,,32.9723,,,,,,3.35,1.44,0,1714698002,2,9,9,2,9,2,2
2024-05-03 01:20:02+00:00,,,,,,,14.7153,,,,,,,,,,,,,,,,,,,,,4.04329,,32.9843,,,,,,3.59,1.44,0,1714699202,2,9,9,2,9,2,2
2024-05-03 01:40:01+00:00,,,,,,,14.6669,,,,,,,,,,,,,,,,,,,,,4.03925,,32.9886,,,,,,3.11,1.2,0,1714700401,2,9,9,2,9,2,2
2024-05-03 02:00:02+00:00,,,,,,,14.6112,,,,,,,,,,,,,,,,,,,,,4.03554,,33.0021,,,,,,2.86,1.2,0,1714701602,2,9,9,2,9,2,2
2024-05-03 02:20:02+00:00,,,,,,,14.5833,,,,,,,,,,,,,,,,,,,,,4.03082,,32.9827,,,,,,2.68,1.44,0,1714702802,2,9,9,2,9,2,2
2024-05-03 02:40:02+00:00,,,,,,,14.5727,,,,,,,,,,,,,,,,,,,,,4.03073,,32.9909,,,,,,2.56,1.44,0,1714704002,2,9,9,2,9,2,2
2024-05-03 03:00:02+00:00,,,,,,,14.5929,,,,,,,,,,,,,,,,,,,,,4.03067,,32.9732,,,,,,2.25,1.44,0,1714705202,2,9,9,2,9,2,2
2024-05-03 03:20:02+00:00,,,,,,,14.5781,,,,,,,,,,,,,,,,,,,,,4.03107,,32.9895,,,,,,2.01,1.2,0,1714706402,2,9,9,2,9,2,2
2024-05-03 03:40:01+00:00,,,,,,,14.5214,,,,,,,,,,,,,,,,,,,,,4.02703,,33.0008,,,,,,2.44,1.69,0,1714707601,2,9,9,2,9,2,2
2024-05-03 04:00:02+00:00,,,,,,,14.4545,,,,,,,,,,,,,,,,,,,,,4.02028,,32.9961,,,,,,3.04,1.2,0,1714708802,2,9,9,2,9,2,2
2024-05-03 04:20:02+00:00,,,,,,,14.4463,,,,,,,,,,,,,,,,,,,,,4.01743,,32.9769,,,,,,3.47,1.2,0,1714710002,2,9,9,2,9,2,2
2024-05-03 04:40:02+00:00,,,,,,,14.3908,,,,,,,,,,,,,,,,,,,,,4.01482,,33.0002,,,,,,3.84,1.2,0,1714711202,2,9,9,2,9,2,2
2024-05-03 05:00:02+00:00,,,,,,,14.3798,,,,,,,,,,,,,,,,,,,,,4.01282,,32.9913,,,,,,4.08,1.2,0,1714712402,2,9,9,2,9,2,2
2024-05-03 05:20:01+00:00,,,,,,,14.3809,,,,,,,,,,,,,,,,,,,,,4.01367,,32.9982,,,,,,3.96,1.2,0,1714713601,2,9,9,2,9,2,2
2024-05-03 05:40:01+00:00,,,,,,,14.349,,,,,,,,,,,,,,,,,,,,,4.01236,,33.0134,,,,,,4.14,1.2,0,1714714801,2,9,9,2,9,2,2
2024-05-03 06:00:02+00:00,,,,,,,14.2664,,,,,,,,,,,,,,,,,,,,,4.00601,,33.0256,,,,,,3.84,1.2,0,1714716002,2,9,9,2,9,2,2
2024-05-03 06:20:02+00:00,,,,,,,14.2484,,,,,,,,,,,,,,,,,,,,,4.00256,,33.0093,,,,,,4.45,1.2,0,1714717202,2,9,9,2,9,2,2
2024-05-03 06:40:02+00:00,,,,,,,14.264,,,,,,,,,,,,,,,,,,,,,4.00271,,32.9974,,,,,,4.26,1.44,0,1714718402,2,9,9,2,9,2,2
2024-05-03 07:00:02+00:00,,,,,,,14.1956,,,,,,,,,,,,,,,,,,,,,4.00008,,33.0317,,,,,,4.51,1.2,0,1714719602,2,9,9,2,9,2,2
2024-05-03 07:20:02+00:00,,,,,,,14.1917,,,,,,,,,,,,,,,,,,,,,3.99861,,33.0214,,,,,,4.93,1.2,0,1714720802,2,9,9,2,9,2,2
2024-05-03 07:40:02+00:00,,,,,,,14.1487,,,,,,,,,,,,,,,,,,,,,3.99641,,33.0381,,,,,,4.93,1.2,0,1714722002,2,9,9,2,9,2,2
2024-05-03 08:00:02+00:00,,,,,,,14.1331,,,,,,,,,,,,,,,,,,,,,3.99462,,33.035,,,,,,4.45,1.2,0,1714723202,2,9,9,2,9,2,2
2024-05-03 08:20:02+00:00,,,,,,,14.1289,,,,,,,,,,,,,,,,,,,,,3.99494,,33.0415,,,,,,4.99,1.2,0,1714724402,2,9,9,2,9,2,2
2024-05-03 08:40:02+00:00,,,,,,,14.0791,,,,,,,,,,,,,,,,,,,,,3.99184,,33.0556,,,,,,4.57,1.44,0,1714725602,2,9,9,2,9,2,2
2024-05-03 09:00:01+00:00,,,,,,,14.0445,,,,,,,,,,,,,,,,,,,,,3.98576,,33.0291,,,,,,4.93,1.2,0,1714726801,2,9,9,2,9,2,2
2024-05-03 09:20:02+00:00,,,,,,,14.0403,,,,,,,,,,,,,,,,,,,,,3.98515,,33.0271,,,,,,4.26,1.2,0,1714728002,2,9,9,2,9,2,2
2024-05-03 09:40:02+00:00,,,,,,,13.9269,,,,,,,,,,,,,,,,,,,,,3.98053,,33.0818,,,,,,4.02,1.2,0,1714729202,2,9,9,2,9,2,2
2024-05-03 10:00:02+00:00,,,,,,,13.7928,,,,,,,,,,,,,,,,,,,,,3.96914,,33.0918,,,,,,4.08,1.2,0,1714730402,2,9,9,2,9,2,2
2024-05-03 10:20:02+00:00,,,,,,,13.7726,,,,,,,,,,,,,,,,,,,,,3.96484,,33.0692,,,,,,3.71,1.2,0,1714731602,2,9,9,2,9,2,2
2024-05-03 10:40:01+00:00,,,,,,,13.7339,,,,,,,,,,,,,,,,,,,,,3.96408,,33.0956,,,,,,3.35,1.2,0,1714732801,2,9,9,2,9,2,2
2024-05-03 11:00:02+00:00,,,,,,,13.6246,,,,,,,,,,,,,,,,,,,,,3.95634,,33.1179,,,,,,3.29,1.2,0,1714734002,2,9,9,2,9,2,2
2024-05-03 11:20:01+00:00,,,,,,,13.5887,,,,,,,,,,,,,,,,,,,,,3.9535,,33.1226,,,,,,2.92,1.2,0,1714735201,2,9,9,2,9,2,2
2024-05-03 11:40:01+00:00,,,,,,,13.4138,,,,,,,,,,,,,,,,,,,,,3.9468,,33.2118,,,,,,2.74,0.96,0,1714736401,2,9,9,2,9,2,2
2024-05-03 12:00:02+00:00,,,,,,,13.0832,,,,,,,,,,,,,,,,,,,,,3.926,,33.3052,,,,,,2.44,0.96,0,1714737602,2,9,9,2,9,2,2
2024-05-03 12:20:02+00:00,,,,,,,12.9233,,,,,,,,,,,,,,,,,,,,,3.91263,,33.3193,,,,,,2.19,0.96,0,1714738802,2,9,9,2,9,2,2
2024-05-03 12:40:02+00:00,,,,,,,12.5893,,,,,,,,,,,,,,,,,,,,,3.88853,,33.385,,,,,,2.01,1.2,0,1714740002,2,9,9,2,9,2,2
2024-05-03 13:00:01+00:00,,,,,,,12.5465,,,,,,,,,,,,,,,,,,,,,3.87447,,33.2882,,,,,,1.71,0.96,0,1714741201,2,9,9,2,9,2,2
2024-05-03 13:20:01+00:00,,,,,,,12.3417,,,,,,,,,,,,,,,,,,,,,3.8631,,33.3611,,,,,,1.64,0.96,0,1714742401,2,9,9,2,9,2,2
2024-05-03 13:40:02+00:00,,,,,,,12.1634,,,,,,,,,,,,,,,,,,,,,3.84653,,33.3602,,,,,,1.4,0.96,0,1714743602,2,9,9,2,9,2,2
2024-05-03 14:00:02+00:00,,,,,,,12.0921,,,,,,,,,,,,,,,,,,,,,3.84131,,33.3734,,,,,,1.28,0.96,0,1714744802,2,9,9,2,9,2,2
2024-05-03 14:20:02+00:00,,,,,,,11.9562,,,,,,,,,,,,,,,,,,,,,3.83449,,33.429,,,,,,1.4,0.96,0,1714746002,2,9,9,2,9,2,2
2024-05-03 14:40:01+00:00,,,,,,,11.8931,,,,,,,,,,,,,,,,,,,,,3.82579,,33.4011,,,,,,1.34,0.96,0,1714747201,2,9,9,2,9,2,2
2024-05-03 15:00:02+00:00,,,,,,,11.9246,,,,,,,,,,,,,,,,,,,,,3.82661,,33.3808,,,,,,1.46,0.96,0,1714748402,2,9,9,2,9,2,2
2024-05-03 15:20:01+00:00,,,,,,,12.123,,,,,,,,,,,,,,,,,,,,,3.83629,,33.2972,,,,,,1.16,0.96,0,1714749601,2,9,9,2,9,2,2
2024-05-03 15:40:02+00:00,,,,,,,12.3497,,,,,,,,,,,,,,,,,,,,,3.85216,,33.2487,,,,,,1.16,0.96,0,1714750802,2,9,9,2,9,2,2
2024-05-03 16:00:01+00:00,,,,,,,13.2643,,,,,,,,,,,,,,,,,,,,,3.90264,,32.927,,,,,,1.04,0.96,0,1714752001,2,9,9,2,9,2,2
2024-05-03 16:20:02+00:00,,,,,,,13.63,,,,,,,,,,,,,,,,,,,,,3.94946,,33.0491,,,,,,1.64,0.96,0,1714753202,2,9,9,2,9,2,2
2024-05-03 16:40:02+00:00,,,,,,,13.7583,,,,,,,,,,,,,,,,,,,,,3.96134,,33.0489,,,,,,2.13,0.96,0,1714754402,2,9,9,2,9,2,2
2024-05-03 17:00:02+00:00,,,,,,,13.8908,,,,,,,,,,,,,,,,,,,,,3.97439,,33.056,,,,,,2.68,1.2,0,1714755602,2,9,9,2,9,2,2
2024-05-03 17:20:02+00:00,,,,,,,14.0405,,,,,,,,,,,,,,,,,,,,,3.98555,,33.0307,,,,,,2.68,1.2,0,1714756802,2,9,9,2,9,2,2
2024-05-03 17:40:02+00:00,,,,,,,14.0268,,,,,,,,,,,,,,,,,,,,,3.99047,,33.0878,,,,,,2.8,1.2,0,1714758002,2,9,9,2,9,2,2